Weather History for KGGE - September, 2014

Change the Weather History Date:

Monday, September 29, 2014

  Actual Average Record
Temperature  
Mean Temperature 66 °F -  
Max Temperature 71 °F 81 °F 86 °F (2011)
Min Temperature 62 °F 62 °F 53 °F (2013)
Cooling Degree Days 2    
Growing Degree Days 16 (Base 50)    
Moisture  
Dew Point 69 °F    
Average Humidity 100    
Maximum Humidity 100    
Minimum Humidity 94    
Precipitation  
Precipitation 0.40 in - - ()
Sea Level Pressure  
Sea Level Pressure 29.98 in    
Wind  
Wind Speed 0 mph (NNE)    
Max Wind Speed 12 mph    
Max Gust Speed 16 mph    
Visibility 9 miles    
Events Rain    
Averages and records for this station are not official NWS values.
T = Trace of Precipitation, MM = Missing Value Source: NWS Daily Summary

Daily Weather History Graph

Daily Weather History Graph

Search for Another Location

Airport or City:

Trip Planner

Search our weather history database for the weather conditions in past years. The results will help you decide how hot, cold, wet, or windy it might be!

Date:

Astronomy

Sep. 29, 2014 Rise Set
Actual Time 7:10 AM EDT 7:04 PM EDT
Civil Twilight 6:45 AM EDT 7:29 PM EDT
Nautical Twilight 6:16 AM EDT 7:57 PM EDT
Astronomical Twilight 5:47 AM EDT 8:26 PM EDT
Moon 12:07 PM EDT (9/29) 10:50 PM EDT (9/29)
Length of Visible Light 12h 43m
Length of Day
11h 54m
Waxing Crescent, 27% of the Moon is Illuminated
Sep 29
Waxing Crescent
Oct 1
First Quarter
Oct 8
Full
Oct 15
Last Quarter
Oct 23
New

Hourly Weather History & Observations

Time (EDT) Temp. Dew Point Humidity Pressure Visibility Wind Dir Wind Speed Gust Speed Precip Events Conditions
12:15 AM 71.6 °F 71.6 °F 100% 30.06 in 10.0 mi Calm Calm - N/A   Overcast
12:35 AM 71.6 °F 71.6 °F 100% 30.05 in 10.0 mi Calm Calm - N/A   Overcast
12:55 AM 71.6 °F 71.6 °F 100% 30.04 in 10.0 mi Calm Calm - N/A   Overcast
1:15 AM 71.6 °F 71.6 °F 100% 30.03 in 10.0 mi Calm Calm - N/A   Overcast
1:35 AM 71.6 °F 71.6 °F 100% 30.03 in 10.0 mi Calm Calm - N/A   Overcast
1:55 AM 71.6 °F 71.6 °F 100% 30.03 in 10.0 mi Calm Calm - N/A   Overcast
2:15 AM 71.6 °F 71.6 °F 100% 30.02 in 10.0 mi Calm Calm - N/A   Mostly Cloudy
2:35 AM 71.6 °F 71.6 °F 100% 30.01 in 10.0 mi Calm Calm - N/A   Overcast
2:55 AM 71.6 °F 71.6 °F 100% 30.01 in 10.0 mi Calm Calm - N/A   Overcast
3:15 AM 71.6 °F 71.6 °F 100% 30.01 in 10.0 mi Calm Calm - N/A   Overcast
3:35 AM 71.6 °F 71.6 °F 100% 30.00 in 10.0 mi Calm Calm - N/A   Overcast
3:55 AM 71.6 °F 71.6 °F 100% 30.00 in 10.0 mi Calm Calm - N/A   Overcast
4:15 AM 71.6 °F 69.8 °F 94% 30.00 in 10.0 mi Calm Calm - N/A   Overcast
4:35 AM 71.6 °F 71.6 °F 100% 30.00 in 10.0 mi Calm Calm - N/A   Overcast
4:55 AM 71.6 °F 71.6 °F 100% 30.00 in 10.0 mi Calm Calm - N/A   Overcast
5:15 AM 71.6 °F 71.6 °F 100% 30.00 in 10.0 mi Calm Calm - N/A   Overcast
5:55 AM 69.8 °F 69.8 °F 100% 30.00 in 10.0 mi Calm Calm - N/A Rain Rain
6:15 AM 69.8 °F 69.8 °F 100% 30.00 in 10.0 mi Calm Calm - N/A   Overcast
6:35 AM 69.8 °F 69.8 °F 100% 30.00 in 10.0 mi Calm Calm - N/A   Overcast
6:55 AM 69.8 °F 69.8 °F 100% 29.99 in 10.0 mi Calm Calm - N/A   Drizzle
7:15 AM 69.8 °F 69.8 °F 100% 30.00 in 10.0 mi Calm Calm - N/A   Drizzle
7:35 AM 69.8 °F 69.8 °F 100% 30.00 in 10.0 mi Calm Calm - 0.01 in Rain Rain
7:55 AM 69.8 °F 69.8 °F 100% 30.00 in 7.0 mi Calm Calm - 0.01 in   Light Drizzle
8:15 AM - - N/A% 30.00 in 10.0 mi Calm Calm - N/A   Overcast
8:35 AM - - N/A% 30.01 in 10.0 mi Calm Calm - N/A   Light Drizzle
8:55 AM 69.8 °F 69.8 °F 100% 30.01 in 10.0 mi Calm Calm - N/A   Drizzle
9:15 AM 69.8 °F 69.8 °F 100% 30.01 in 10.0 mi Calm Calm - 0.01 in   Drizzle
9:35 AM 69.8 °F 69.8 °F 100% 30.01 in 7.0 mi Calm Calm - 0.01 in Rain Light Rain
9:55 AM 69.8 °F 69.8 °F 100% 30.01 in 7.0 mi Calm Calm - 0.03 in Rain Rain
10:15 AM - - N/A% 30.01 in 10.0 mi Calm Calm - 0.01 in Rain Rain
10:35 AM 69.8 °F 69.8 °F 100% 30.00 in 10.0 mi Calm Calm - 0.01 in   Light Drizzle
10:55 AM 69.8 °F 69.8 °F 100% 30.00 in 10.0 mi Calm Calm - 0.01 in Rain Rain
11:15 AM 71.6 °F 71.6 °F 100% 30.00 in 10.0 mi Calm Calm - N/A   Light Drizzle
11:35 AM 71.6 °F 71.6 °F 100% 30.00 in 10.0 mi Calm Calm - N/A   Light Drizzle
11:55 AM 71.6 °F 71.6 °F 100% 30.00 in 10.0 mi Calm Calm - N/A   Light Drizzle
12:15 PM 71.6 °F 71.6 °F 100% 29.99 in 10.0 mi Calm Calm - N/A   Light Drizzle
12:35 PM 71.6 °F 71.6 °F 100% 29.99 in 7.0 mi Calm Calm - 0.01 in Rain Heavy Rain
12:55 PM 69.8 °F 69.8 °F 100% 29.99 in 5.0 mi Calm Calm - 0.07 in Rain Light Rain
1:15 PM 69.8 °F 69.8 °F 100% 29.98 in 7.0 mi Calm Calm - N/A Rain Rain
1:35 PM 69.8 °F 69.8 °F 100% 29.97 in 7.0 mi Calm Calm - 0.02 in Rain Rain
1:55 PM 69.8 °F 69.8 °F 100% 29.96 in 10.0 mi Calm Calm - 0.02 in   Drizzle
2:15 PM 69.8 °F 69.8 °F 100% 29.96 in 10.0 mi Calm Calm - N/A   Drizzle
2:55 PM 69.8 °F 69.8 °F 100% 29.95 in 7.0 mi Calm Calm - 0.01 in   Drizzle
3:15 PM 69.8 °F 69.8 °F 100% 29.95 in 10.0 mi Calm Calm - 0.01 in   Drizzle
3:35 PM 69.8 °F 69.8 °F 100% 29.95 in 10.0 mi Calm Calm - 0.01 in   Drizzle
3:55 PM 69.8 °F 69.8 °F 100% 29.95 in 10.0 mi Calm Calm - 0.01 in   Light Drizzle
4:15 PM 69.8 °F 69.8 °F 100% 29.95 in 7.0 mi NE 8.1 mph - N/A Rain Light Rain
4:35 PM 68.0 °F 68.0 °F 100% 29.95 in 7.0 mi NNE 4.6 mph - 0.05 in Rain Light Rain
4:55 PM 68.0 °F 68.0 °F 100% 29.95 in 10.0 mi NNE 11.5 mph 16.1 mph 0.09 in Rain Light Rain
5:15 PM 68.0 °F 68.0 °F 100% 29.95 in 10.0 mi Calm Calm - 0.01 in Rain Light Rain
5:35 PM 68.0 °F 68.0 °F 100% 29.95 in 10.0 mi Calm Calm - 0.01 in   Light Drizzle
5:55 PM 68.0 °F 68.0 °F 100% 29.95 in 5.0 mi North 4.6 mph - 0.03 in Rain Light Rain
6:15 PM 64.4 °F 64.4 °F 100% 29.95 in 5.0 mi North 10.4 mph - 0.02 in Rain Rain
6:35 PM 64.4 °F 64.4 °F 100% 29.95 in 5.0 mi NNE 9.2 mph - 0.05 in Rain Light Rain
6:55 PM 64.4 °F 64.4 °F 100% 29.95 in 10.0 mi NNE 5.8 mph - 0.06 in   Drizzle
7:15 PM 64.4 °F 64.4 °F 100% 29.95 in 10.0 mi Calm Calm - N/A   Light Drizzle
7:35 PM - - N/A% 29.95 in 10.0 mi Calm Calm - N/A   Light Drizzle
7:55 PM - - N/A% 29.95 in 10.0 mi Calm Calm - N/A   Light Drizzle
8:15 PM 62.6 °F 62.6 °F 100% 29.96 in 10.0 mi Calm Calm - N/A   Drizzle
8:35 PM 62.6 °F 62.6 °F 100% 29.96 in 10.0 mi Calm Calm - N/A   Overcast
8:55 PM 62.6 °F 62.6 °F 100% 29.96 in 10.0 mi Calm Calm - N/A   Overcast
9:15 PM 62.6 °F 62.6 °F 100% 29.96 in 10.0 mi Calm Calm - N/A   Overcast
9:35 PM 62.6 °F 62.6 °F 100% 29.96 in 10.0 mi Calm Calm - 0.01 in   Drizzle
9:55 PM 62.6 °F 62.6 °F 100% 29.95 in 5.0 mi Calm Calm - 0.02 in   Drizzle
10:15 PM 62.6 °F 62.6 °F 100% 29.96 in 7.0 mi Calm Calm - 0.04 in Rain Rain
10:35 PM - - N/A% 29.96 in 10.0 mi Calm Calm - 0.04 in   Overcast
10:55 PM - - N/A% 29.96 in 10.0 mi Calm Calm - 0.04 in   Overcast
11:15 PM - - N/A% 29.95 in 10.0 mi Calm Calm - N/A   Overcast
11:35 PM - - N/A% 29.95 in 10.0 mi Calm Calm - N/A   Overcast
11:55 PM - - N/A% 29.94 in 10.0 mi Calm Calm - N/A   Overcast